LA5PPA-1 Mjondalen NO current weather conditions

sailwx.info

Wind from 319 at 7 knots gusting 16

Air temperature -0.6° C
Dewpoint -4.3° C

Last reported at 2019-Dec-06 08:00 UTC.
Time now 2019-Dec-06 08:50 UTC

Location: N 60°34' E 009°15'.
View on Google Maps.

See reports from other nearby stations

  
Tides and Currents Weather Stations Pressure Air Temp Water Temp Dewpoint Dewpoint Depression Visibility Wind Speed Wind Dir Waves Ship Positions
date/time (UTC)wind fromknots sea level pressurealtimeterstation pressurevisibilityair tempwater tempwave heightnotes
2019-Dec-06 08:00 319 7 gusting 16 -0.6
2019-Dec-06 07:50 336 7 gusting 12 -0.6
2019-Dec-06 07:40 333 5 gusting 9 -0.6
2019-Dec-06 07:30 315 7 gusting 10 -0.6
2019-Dec-06 06:40 347 4 gusting 5 -0.6
2019-Dec-06 06:30 316 2 gusting 6 -0.6
2019-Dec-06 06:20 319 4 gusting 7 -1.1
2019-Dec-06 06:10 315 1 gusting 4 -1.1
2019-Dec-06 06:00 324 2 gusting 7 -0.6
2019-Dec-06 05:50 340 2 gusting 7 -0.6
2019-Dec-06 05:40 320 0 gusting 7 -0.6
2019-Dec-06 05:30 292 4 gusting 6 -0.6
2019-Dec-06 05:20 322 5 gusting 6 -0.6
2019-Dec-06 05:10 274 1 gusting 4 -0.6
2019-Dec-06 05:00 305 1 gusting 7 -0.6
2019-Dec-06 04:50 275 4 gusting 6 -0.6
2019-Dec-06 04:30 316 5 gusting 5 -0.0
2019-Dec-06 04:20 289 -0.0
2019-Dec-06 04:10 316 4 gusting 6 0.6
2019-Dec-06 04:00 324 3 gusting 8 -0.0
2019-Dec-06 03:50 292 0 gusting 6 0.6
2019-Dec-06 03:40 330 1 gusting 8 0.6
2019-Dec-06 03:30 310 3 gusting 6 0.6
2019-Dec-06 03:20 309 3 gusting 6 0.6
2019-Dec-06 03:10 270 1 gusting 11 0.6
2019-Dec-06 03:00 316 5 gusting 8 0.6
2019-Dec-06 02:40 299 3 gusting 12 0.6
2019-Dec-06 02:30 310 3 gusting 9 1.1
2019-Dec-06 02:20 277 3 gusting 9 1.1
2019-Dec-06 02:00 198 1 gusting 6 1.1
2019-Dec-06 01:50 305 4 gusting 7 1.1
2019-Dec-06 01:40 289 3 gusting 7 1.1
2019-Dec-06 01:30 001 2 gusting 4 1.1
2019-Dec-06 01:20 322 5 gusting 7 1.1
2019-Dec-06 01:10 317 2 gusting 8 1.1
2019-Dec-06 01:00 315 3 gusting 8 1.1
2019-Dec-06 00:50 322 2 gusting 6 1.1
2019-Dec-06 00:40 320 0 gusting 6 1.1
2019-Dec-06 00:30 300 4 gusting 7 1.1
2019-Dec-06 00:20 282 2 gusting 7 1.1
2019-Dec-06 00:10 316 3 gusting 8 1.1
2019-Dec-06 00:00 291 6 gusting 7 1.1
2019-Dec-05 23:50 322 4 gusting 6 1.1
2019-Dec-05 23:40 306 4 gusting 7 1.1
2019-Dec-05 23:30 326 2 gusting 6 1.1
2019-Dec-05 23:20 215 2 gusting 16 1.7
2019-Dec-05 23:10 282 6 gusting 9 1.7
2019-Dec-05 23:00 312 4 gusting 10 1.7
2019-Dec-05 22:50 270 2 gusting 7 1.7
2019-Dec-05 22:40 300 3 gusting 9 1.7
2019-Dec-05 22:30 322 4 gusting 11 1.7
2019-Dec-05 22:20 330 3 gusting 6 1.7
2019-Dec-05 22:10 295 7 gusting 17 1.7
2019-Dec-05 21:50 322 5 gusting 13 1.7
2019-Dec-05 21:40 337 6 gusting 13 1.7
2019-Dec-05 21:30 250 1 gusting 10 1.7
2019-Dec-05 21:20 313 6 gusting 9 1.7
2019-Dec-05 21:10 070 3 gusting 10 1.7
2019-Dec-05 21:00 313 4 gusting 16 1.7
2019-Dec-05 20:50 315 6 gusting 16 1.7
2019-Dec-05 20:40 298 8 gusting 16 1.7
2019-Dec-05 20:30 310 5 gusting 14 1.1
2019-Dec-05 20:20 358 6 gusting 15 1.1
2019-Dec-05 20:10 330 7 gusting 18 1.1
2019-Dec-05 20:00 305 6 gusting 13 1.7
2019-Dec-05 19:50 271 6 gusting 13 1.7
2019-Dec-05 19:40 299 3 gusting 15 1.7
2019-Dec-05 19:30 309 2 gusting 13 1.7
2019-Dec-05 19:20 262 4 gusting 17 1.7
2019-Dec-05 19:10 101 4 gusting 15 1.7
2019-Dec-05 19:00 307 5 gusting 17 1.7
2019-Dec-05 18:50 298 7 gusting 14 1.7
2019-Dec-05 18:40 319 1 gusting 13 1.7
2019-Dec-05 18:30 279 4 gusting 17 1.7
2019-Dec-05 18:20 358 5 gusting 15 1.7
2019-Dec-05 18:10 293 6 gusting 10 1.7
2019-Dec-05 18:00 163 4 gusting 17 1.1
2019-Dec-05 17:50 258 3 gusting 12 1.7
2019-Dec-05 17:40 289 12 gusting 16 1.1
2019-Dec-05 17:30 330 5 gusting 22 1.1
2019-Dec-05 17:20 300 6 gusting 19 1.1
2019-Dec-05 17:10 350 7 gusting 17 1.1
2019-Dec-05 17:00 298 19 gusting 21 1.1
2019-Dec-05 16:50 313 4 gusting 13 1.1
2019-Dec-05 16:40 312 7 gusting 18 1.1
2019-Dec-05 16:30 316 7 gusting 19 1.1
2019-Dec-05 16:20 329 4 gusting 25 1.1
2019-Dec-05 16:10 319 4 gusting 25 1.1
2019-Dec-05 16:00 305 8 gusting 31 1.1
2019-Dec-05 15:50 313 3 gusting 27 1.1
2019-Dec-05 15:40 323 6 gusting 24 1.1
2019-Dec-05 15:30 310 11 gusting 25 1.1
2019-Dec-05 15:20 291 20 gusting 22 1.1
2019-Dec-05 15:10 317 6 gusting 13 1.1
2019-Dec-05 15:00 317 11 gusting 21 1.1
2019-Dec-05 14:50 323 4 gusting 23 1.1
2019-Dec-05 14:40 296 7 gusting 26 1.1
2019-Dec-05 14:30 296 7 gusting 22 1.1
2019-Dec-05 14:20 271 10 gusting 21 1.1
2019-Dec-05 14:10 296 13 gusting 21 1.1
2019-Dec-05 14:00 319 6 gusting 25 1.7
2019-Dec-05 13:50 327 6 gusting 26 1.1
2019-Dec-05 13:40 293 3 gusting 24 1.1
2019-Dec-05 13:30 319 7 gusting 24 1.7
2019-Dec-05 13:20 329 6 gusting 32 1.7
2019-Dec-05 13:10 309 17 gusting 20 1.7
2019-Dec-05 13:00 016 4 gusting 24 1.7
2019-Dec-05 12:50 309 5 gusting 26 1.7
2019-Dec-05 12:40 320 16 gusting 39 1.7
2019-Dec-05 12:30 358 9 gusting 35 1.1
2019-Dec-05 12:20 305 4 gusting 39 1.1
2019-Dec-05 12:10 319 16 gusting 33 1.1
2019-Dec-05 12:00 312 6 gusting 16 1.1
2019-Dec-05 11:50 309 9 gusting 31 1.1
2019-Dec-05 11:40 303 11 gusting 24 0.6
2019-Dec-05 11:30 358 5 gusting 29 0.6
2019-Dec-05 11:20 358 14 gusting 31 0.6
2019-Dec-05 11:10 358 11 gusting 29 0.6
2019-Dec-05 11:00 306 4 gusting 19 0.6
2019-Dec-05 10:50 319 7 gusting 24 0.6
2019-Dec-05 10:40 319 13 gusting 22 1.1
2019-Dec-05 10:30 289 3 gusting 19 0.6
2019-Dec-05 10:20 303 16 gusting 29 0.6
2019-Dec-05 10:10 260 8 gusting 30 0.6
2019-Dec-05 10:00 281 24 gusting 30 0.6
2019-Dec-05 09:50 340 10 gusting 36 -0.0
2019-Dec-05 09:40 300 14 gusting 30 -0.0
2019-Dec-05 09:30 257 18 gusting 21 -0.0
2019-Dec-05 09:20 021 5 gusting 25 -0.0
2019-Dec-05 09:10 284 7 gusting 26 -0.6
2019-Dec-05 09:00 289 20 gusting 30 -0.6
2019-Dec-05 08:50 329 4 gusting 19 -0.6
2019-Dec-05 08:40 278 6 gusting 22 -0.6
2019-Dec-05 08:30 305 19 gusting 26 -0.6
2019-Dec-05 08:20 291 9 gusting 21 -0.6
2019-Dec-05 08:10 316 19 gusting 19 -0.6
2019-Dec-05 08:00 296 13 gusting 23 -0.6
2019-Dec-05 07:50 310 12 gusting 23 -0.6
2019-Dec-05 07:40 338 6 gusting 18 -0.6
2019-Dec-05 07:30 289 7 gusting 17 -0.6
2019-Dec-05 07:20 253 5 gusting 22 -0.6
2019-Dec-05 07:10 337 13 gusting 18 -1.1
2019-Dec-05 07:00 299 7 gusting 25 -1.1
2019-Dec-05 06:50 347 5 gusting 19 -1.1
2019-Dec-05 06:40 316 5 gusting 19 -1.1
2019-Dec-05 06:30 327 13 gusting 25 -0.6
2019-Dec-05 06:20 317 6 gusting 21 -0.6
2019-Dec-05 06:10 254 8 gusting 25 -0.6
2019-Dec-05 06:00 292 6 gusting 19 -0.6
2019-Dec-05 05:50 322 6 gusting 23 -0.6
2019-Dec-05 05:40 309 8 gusting 15 -0.6
2019-Dec-05 05:30 320 3 gusting 13 -0.6
2019-Dec-05 05:20 315 6 gusting 8 -0.6
2019-Dec-05 05:10 343 6 gusting 10 -0.6
2019-Dec-05 05:00 313 2 gusting 6 -0.6
2019-Dec-05 04:50 329 3 gusting 13 -0.6
2019-Dec-05 04:40 331 5 gusting 10 -0.6
2019-Dec-05 04:30 215 0 gusting 13 -0.0
2019-Dec-05 04:20 336 5 gusting 9 -0.0
2019-Dec-05 04:10 295 6 gusting 17 -0.0
2019-Dec-05 04:00 319 5 gusting 13 -0.0
2019-Dec-05 03:50 262 5 gusting 8 -0.0
2019-Dec-05 03:40 296 6 gusting 12 -0.0
2019-Dec-05 03:30 307 2 gusting 11 -0.0
2019-Dec-05 03:20 338 7 gusting 20 -0.0
2019-Dec-05 03:00 299 3 gusting 15 -0.0
2019-Dec-05 02:50 313 6 gusting 12 -0.0
2019-Dec-05 02:40 150 0 gusting 8 -0.0
2019-Dec-05 02:30 322 7 gusting 15 -0.0
2019-Dec-05 02:20 312 4 gusting 13 -0.0
2019-Dec-05 02:10 303 10 gusting 16 -0.0
2019-Dec-05 02:00 285 8 gusting 16 -0.0
2019-Dec-05 01:50 241 10 gusting 19 -0.0
2019-Dec-05 01:40 322 7 gusting 19 -0.0
2019-Dec-05 01:30 292 7 gusting 18 -0.0
2019-Dec-05 01:20 319 5 gusting 19 -0.0
2019-Dec-05 01:10 316 4 gusting 19 -0.0
2019-Dec-05 01:00 129 3 gusting 12 -0.0
2019-Dec-05 00:50 305 11 gusting 11 -0.0
2019-Dec-05 00:40 334 5 gusting 17 -0.0
2019-Dec-05 00:30 317 3 gusting 9 0.6
2019-Dec-05 00:20 322 4 gusting 16 0.6
2019-Dec-05 00:10 305 8 gusting 17 0.6
2019-Dec-05 00:00 323 8 gusting 15 0.6
2019-Dec-04 23:50 333 5 gusting 21 0.6
2019-Dec-04 23:40 322 6 gusting 19 1.1
2019-Dec-04 23:30 327 13 gusting 20 1.1
2019-Dec-04 23:20 336 6 gusting 18 1.7
2019-Dec-04 23:10 251 10 gusting 17 1.7
2019-Dec-04 23:00 309 5 gusting 15 1.7
2019-Dec-04 22:50 323 6 gusting 19 1.7
2019-Dec-04 22:40 358 4 gusting 19 1.7
2019-Dec-04 22:30 201 16 gusting 21 1.7
2019-Dec-04 22:20 358 2 gusting 17 1.7
2019-Dec-04 22:10 307 6 gusting 8 1.7
2019-Dec-04 22:00 227 3 gusting 9 1.7
2019-Dec-04 21:50 309 3 gusting 10 1.7
2019-Dec-04 21:40 322 5 gusting 9 1.7
2019-Dec-04 21:30 336 3 gusting 8 1.7
2019-Dec-04 21:20 316 1.7
2019-Dec-04 21:10 299 6 gusting 6 1.7
2019-Dec-04 21:00 271 5 gusting 8 1.7
2019-Dec-04 20:50 309 5 gusting 18 1.7
2019-Dec-04 20:40 320 5 gusting 10 1.7
2019-Dec-04 20:30 330 4 gusting 13 1.7
2019-Dec-04 20:20 030 3 gusting 12 1.7
2019-Dec-04 20:10 319 4 gusting 19 1.7
2019-Dec-04 20:00 282 9 gusting 13 1.7
2019-Dec-04 19:50 313 6 gusting 14 1.7
2019-Dec-04 19:40 315 5 gusting 19 1.7
2019-Dec-04 19:30 358 7 gusting 16 1.7
2019-Dec-04 19:20 307 7 gusting 16 1.7
2019-Dec-04 19:10 358 1 gusting 12 1.7
2019-Dec-04 18:50 312 6 gusting 16 1.7
2019-Dec-04 18:40 302 9 gusting 15 1.7
2019-Dec-04 18:30 331 5 gusting 8 1.7
2019-Dec-04 18:20 299 9 gusting 13 1.7
2019-Dec-04 18:10 312 3 gusting 7 2.2
2019-Dec-04 18:00 265 5 gusting 9 2.2
2019-Dec-04 17:50 327 0 gusting 8 2.2
2019-Dec-04 17:40 001 2.2
2019-Dec-04 17:30 358 2 gusting 6 2.2
2019-Dec-04 17:20 329 3 gusting 11 2.2
2019-Dec-04 17:10 324 6 gusting 12 2.2
2019-Dec-04 17:00 317 6 gusting 13 2.2
2019-Dec-04 16:50 329 11 gusting 11 2.2
2019-Dec-04 16:40 289 13 gusting 17 2.2
2019-Dec-04 16:30 303 8 gusting 19 2.8
2019-Dec-04 16:20 303 6 gusting 19 2.8
2019-Dec-04 16:10 358 7 gusting 20 2.8
2019-Dec-04 16:00 320 9 gusting 10 2.8
2019-Dec-04 15:50 309 11 gusting 13 2.8
2019-Dec-04 15:40 312 3 gusting 13 2.8
2019-Dec-04 15:30 313 6 gusting 13 3.3
2019-Dec-04 15:20 295 9 gusting 14 3.3
2019-Dec-04 15:10 291 9 gusting 23 3.3
2019-Dec-04 15:00 310 7 gusting 17 3.3
2019-Dec-04 14:50 313 6 gusting 19 3.3
2019-Dec-04 14:40 331 4 gusting 8 3.3
2019-Dec-04 14:30 275 4 gusting 10 3.9
2019-Dec-04 14:20 293 6 gusting 18 3.9
2019-Dec-04 14:10 313 4 gusting 13 4.4
2019-Dec-04 14:00 324 7 gusting 18 4.4
2019-Dec-04 13:50 322 10 gusting 17 4.4
2019-Dec-04 13:40 300 9 gusting 18 4.4
2019-Dec-04 13:30 026 4 gusting 14 4.4
2019-Dec-04 13:20 262 6 gusting 15 4.4
2019-Dec-04 13:10 288 6 gusting 15 4.4
2019-Dec-04 13:00 295 8 gusting 17 5.0
2019-Dec-04 12:50 284 9 gusting 11 5.0
2019-Dec-04 12:40 324 3 gusting 10 5.6
2019-Dec-04 12:30 299 3 gusting 10 5.6
2019-Dec-04 12:20 340 6 gusting 12 5.0
2019-Dec-04 12:10 302 12 gusting 12 5.0
2019-Dec-04 12:00 309 6 gusting 11 5.0
2019-Dec-04 11:50 312 6 gusting 9 5.0
2019-Dec-04 11:30 317 0 gusting 3 4.4
2019-Dec-04 11:20 306 2 gusting 3 4.4
2019-Dec-04 11:10 306 0 gusting 4 4.4
2019-Dec-04 11:00 309 1 gusting 5 3.9
2019-Dec-04 10:50 313 6 gusting 8 3.3
2019-Dec-04 10:40 313 1 gusting 6 2.8
2019-Dec-04 10:30 320 2.8
2019-Dec-04 10:20 320 2.8
2019-Dec-04 10:10 310 0 gusting 2 2.8
2019-Dec-04 10:00 281 2.2
2019-Dec-04 09:50 331 2.2
2019-Dec-04 09:40 172 1.7
2019-Dec-04 09:30 172 1.7
2019-Dec-04 09:20 172 1.7
2019-Dec-04 09:10 352 1.1
2019-Dec-04 09:00 352 1.1
2019-Dec-04 08:50 352 1.7
2019-Dec-04 08:40 352 1.7
2019-Dec-04 08:30 352 2.2
2019-Dec-04 08:20 327 2.2
2019-Dec-04 08:10 338 2 gusting 6 1.7
2019-Dec-04 08:00 334 0 gusting 5 1.1